Regional Weather Roundup
Issued by NWS

Home | Current Version | Previous Version | Text Only | Print | Product List | Glossary On
Versions: 1 2 3 4 5 6 7 8 9 10 11 12 13 14 15 16 17 18 19 20 21 22 23 24 25 26 27 28 29 30 31 32 33 34 35 36 37 38 39 40 41 42 43 44 45 46 47 48 49 50
000
ASUS44 KFWD 291310
RWRTX
NORTH TEXAS HOURLY WEATHER ROUNDUP
NATIONAL WEATHER SERVICE FORT WORTH TX
800 AM CDT MON AUG 29 2016

NOTE: "FAIR" INDICATES FEW OR NO CLOUDS BELOW 12,000 FEET WITH NO
SIGNIFICANT WEATHER AND/OR OBSTRUCTIONS TO VISIBILITY.

TXZ118-119-291400-
DALLAS/FORT WORTH METROPLEX

CITY           SKY/WX    TMP DP  RH WIND       PRES   REMARKS
DFW AIRPORT    MOSUNNY   77  72  84 NE3       30.07R
DALLAS LOVE    MOSUNNY   76  72  87 NE3       30.07R
FTW MEACHAM    MOSUNNY   77  71  82 NE6       30.08R
DAL-EXECUTIVE  SUNNY     76  73  91 NE3       30.07R
FTW-ALLIANCE   MOSUNNY   75  71  87 N3        30.08R
FTW-SPINKS     SUNNY     72  72 100 CALM      30.10R
ARLINGTON      SUNNY     75  71  87 CALM      30.07R
GRAND PRAIRIE  SUNNY     75  72  88 NE3       30.09R
ADDISON        SUNNY     75  75 100 NE5       30.10
MESQUITE       MOSUNNY   73  73 100 CALM      30.07R
LANCASTER      PTSUNNY   74  72  92 CALM      30.07S FOG
$$

TXZ091>094-102>105-117-120-121-131>134-291400-
NORTH CENTRAL TEXAS

CITY           SKY/WX    TMP DP  RH WIND       PRES   REMARKS
SHRMAN/DENISON MOSUNNY   72  72 100 CALM      30.11R
GAINESVILLE      N/A     71  70  96 E5        30.12R
BOWIE          SUNNY     71  70  96 CALM      30.12R
BRIDGEPORT     SUNNY     70  70 100 CALM      30.11R FOG
DECATUR          N/A     71  70  99 NE5       30.11R FOG
DENTON         MOSUNNY   73  71  93 NE5       30.09R
MCKINNEY       SUNNY     72  70  93 N3        30.08R
GREENVILLE     MOSUNNY   73  72  94 CALM      30.08S
ROCKWALL       SUNNY     74  73  96 N6        30.07R
TERRELL        MOSUNNY   75  71  87 N5        30.07R
WAXAHACHIE     PTSUNNY   72  72 100 CALM      30.09R FOG
CLEBURNE       MOSUNNY   73  73 100 NE6       30.10R
GRANBURY       SUNNY     74  70  88 CALM      30.10R
$$

TXZ083>090-098>101-113>116-127>130-139>142-154-155-291400-
WESTERN NORTH TEXAS

CITY           SKY/WX    TMP DP  RH WIND       PRES   REMARKS
WICHITA FALLS  MOSUNNY   71  68  90 E5        30.10R
WF-KICKAPOO    PTSUNNY   73  68  86 E5        30.12R
VERNON         CLEAR     70  65  83 CALM      30.12R
ABILENE        CLEAR     68  67  96 E3        30.12R
CISCO          MOCLDY    70  70 100 E3        30.12R
BRECKENRIDGE   CLOUDY    73  70  92 E3        30.10R
GRAHAM         MOSUNNY   72  71  96 CALM      30.09R
MINERAL WELLS  SUNNY     72  69  90 E3        30.08R
STEPHENVILLE   SUNNY     70  67  92 CALM      30.13R
COMANCHE       CLOUDY    71  71 100 CALM      30.10R
BROWNWOOD      CLOUDY    72  70  94 E3        30.10R
COLEMAN        CLOUDY    70  68  93 NE3       30.11R
$$

TXZ143>147-156>162-174-175-291400-
CENTRAL TEXAS

CITY           SKY/WX    TMP DP  RH WIND       PRES   REMARKS
WACO           MOSUNNY   72  72 100 N7        30.06R
WACO-MCGREGOR  SUNNY     72  71  97 N6        30.07R
HILLSBORO      MOSUNNY   71  70  96 NE3       30.07R
CORSICANA      SUNNY     75  71  87 N6        30.06R
MEXIA          PTSUNNY   73  72  94 NW7       30.04R
HEARNE         CLOUDY    74  71  91 MISG      30.02S
CAMERON        CLOUDY    73  72  97 N3        30.03R
TEMPLE         MOSUNNY   71  70  96 N6        30.06R
KILLEEN        CLOUDY    72  70  94 N7        30.06S
KILLEEN-SKYLRK PTSUNNY   72  70  93 N6        30.06R
FORT HOOD      PTSUNNY   70  70 100 N8        30.04S FOG
GATESVILLE     PTSUNNY   72  72 100 CALM      30.10R FOG
HAMILTON       CLOUDY    71  71 100 E5        30.11R FOG
LAMPASAS       CLOUDY    72  71  96 NE6       30.07R
$$

TXZ095>097-106>112-122>126-135>138-148>153-164>167-291400-
EAST TEXAS

CITY           SKY/WX    TMP DP  RH WIND       PRES   REMARKS
PARIS          SUNNY     73  70  88 N8        30.09R
SULPHUR SPRNGS SUNNY     74  72  91 N3        30.09S
MOUNT PLEASANT SUNNY     73  73 100 N3        30.07S
GILMER         MOSUNNY   72  71  98 CALM      30.06R
TYLER          CLOUDY    74  72  93 NE6       30.05R
LONGVIEW       CLOUDY    74  73  97 CALM      30.04R
MARSHALL       CLOUDY    71  69  93 CALM      30.06R
ATHENS         SUNNY     72  72 100 N6        30.04R
PALESTINE      SUNNY     73  73 100 N5        30.04R
JACKSONVILLE   CLOUDY    72  72 100 CALM      30.06R FOG
HENDERSON      CLOUDY    73  73 100 CALM      30.06R
CENTER         CLOUDY    76  74  96 CALM      30.04S
NACOGDOCHES    CLOUDY   N/A N/A N/A NE3       30.01R
LUFKIN         CLOUDY    73  71  93 NE6       30.01R
$$

SUPPLEMENTAL OBSERVATIONS (CENTRAL)

CITY           SKY/WX    TMP DP  RH WIND       PRES   REMARKS
CADDO GRASSLND   N/A     73  70  88 CALM        N/A
PAT MAYSE LAKE   N/A     73  72  94 NW2         N/A
GREENVILLE       N/A     75  72  88 N6          N/A
CEDAR HILL       N/A     73  72  94 NE1         N/A
MCGREGOR         N/A     73  72  94 N3          N/A
TEMPLE           N/A     73  68  83 N5          N/A
$$

SUPPLEMENTAL OBSERVATIONS (WEST)

CITY           SKY/WX    TMP DP  RH WIND       PRES   REMARKS
MILLERS CREEK    N/A     70  66  88 NE2         N/A
POSSUM KINGDOM   N/A     73  70  88 E6          N/A
LBJ GRASSLAND    N/A     72  70  94 CALM        N/A
GRANBURY         N/A     75  70  83 S1          N/A
HAMBY            N/A     66  64  94 CALM        N/A
IVIE RESERVOIR   N/A     72  66  83 SE1         N/A
COLORADO BEND    N/A     72  68  88 NE3         N/A
$$

SUPPLEMENTAL OBSERVATIONS (EAST)

CITY           SKY/WX    TMP DP  RH WIND       PRES   REMARKS
CLARKSVILLE      N/A     75  70  83 N3          N/A
GILMER           N/A     73  70  88 N1          N/A
HENDERSON        N/A     73  70  88 NE3         N/A
N SABINE NF      N/A     73  72  94 MISG        N/A
S SABINE NF      N/A     73  72  94 NW1         N/A
$$

SUPPLEMENTAL OBSERVATIONS ARE A COLLECTION OF AUTOMATED INSTRUMENTS
THAT ARE MAINTAINED BY A VARIETY OF FEDERAL AND STATE AGENCIES.
CERTAIN ELEMENTS...SUCH AS HUMIDITY VALUES AND SUSTAINED WIND
SPEEDS...MAY BE APPROXIMATED.





USA.gov is the U.S. government's official web portal to all federal, state and local government web resources and services.